Weather History for Annette Island, AK

Change the Weather History Date:

Tuesday, November 22, 2011

  Actual Average Record
Temperature  
Mean Temperature 38 °F 39 °F  
Max Temperature 42 °F 44 °F 57 °F (1949)
Min Temperature 33 °F 34 °F 11 °F (1996)
Degree Days  
Heating Degree Days 27 26  
Month to date heating degree days 602 537  
Since 1 July heating degree days 2022 1837  
Cooling Degree Days 0    
Month to date cooling degree days 0  
Year to date cooling degree days 3  
Moisture  
Dew Point 34 °F    
Average Humidity 0    
Maximum Humidity 0    
Minimum Humidity 0    
Precipitation  
Precipitation 0.07 in 0.38 in 2.62 in (1957)
Month to date precipitation 9.48 9.23  
Year to date precipitation 101.25 87.85  
Snow  
Snow 0.00 in 0.20 in 3.10 in (1963)
Month to date snowfall 6.4 2.2  
Since 1 July snowfall 2.3  
Since 1 September snowfall 6.4 2.3  
Snow Depth 0.00 in    
Sea Level Pressure  
Sea Level Pressure 29.06 in    
Wind  
Wind Speed 6 mph (South)    
Max Wind Speed 21 mph    
Max Gust Speed 30 mph    
Visibility 9 miles    
Events Rain , Snow    
T = Trace of Precipitation, MM = Missing Value Source: NWS Daily Summary

Daily Weather History Graph

Daily Weather History Graph

Search for Another Location

Airport:

Trip Planner

Search our weather history database for the weather conditions in past years. The results will help you decide how hot, cold, wet, or windy it might be!

Date:

Astronomy

Nov. 22, 2011 Rise Set
Actual Time 7:31 AM AKST 3:32 PM AKST
Civil Twilight 6:49 AM AKST 4:14 PM AKST
Nautical Twilight 6:04 AM AKST 5:00 PM AKST
Astronomical Twilight 5:20 AM AKST 5:43 PM AKST
Moon 4:11 AM AKST (11/22) 1:51 PM AKST (11/22)
Length of Visible Light 9h 25m
Length of Day
8h 00m
Waning Crescent, 8% of the Moon is Illuminated
Nov 22
Waning Crescent
Nov 24
New
Dec 2
First Quarter
Dec 10
Full
Dec 17
Last Quarter

Hourly Weather History & Observations

Time (AKST) Temp. Windchill Dew Point Humidity Pressure Visibility Wind Dir Wind Speed Gust Speed Precip Events Conditions
12:53 AM 37.0 °F - 30.0 °F 76% 28.85 in 10.0 mi Calm Calm - N/A   Overcast
1:53 AM 37.0 °F - 28.9 °F 73% 28.84 in 10.0 mi Calm Calm - N/A   Overcast
2:53 AM 33.1 °F - 30.0 °F 89% 28.84 in 10.0 mi Calm Calm - N/A   Overcast
3:53 AM 34.0 °F - 32.0 °F 92% 28.84 in 10.0 mi Calm Calm - N/A   Overcast
4:53 AM 35.1 °F 32.2 °F 32.0 °F 89% 28.86 in 10.0 mi SE 3.5 mph - N/A   Overcast
5:38 AM 37.4 °F 30.8 °F 32.0 °F 81% 28.87 in 10.0 mi SSE 9.2 mph - N/A   Overcast
5:53 AM 37.9 °F 31.5 °F 33.1 °F 83% 28.89 in 10.0 mi SE 9.2 mph - N/A   Overcast
6:53 AM 37.0 °F 29.8 °F 34.0 °F 89% 28.91 in 10.0 mi ESE 10.4 mph - 0.00 in Rain Light Rain
7:08 AM 37.4 °F 30.3 °F 35.6 °F 93% 28.91 in 10.0 mi ESE 10.4 mph - 0.01 in Rain Light Rain
7:18 AM 37.4 °F 29.3 °F 35.6 °F 93% 28.91 in 10.0 mi SE 12.7 mph - 0.01 in Rain Light Rain
7:20 AM 37.4 °F 30.3 °F 35.6 °F 93% 28.91 in 10.0 mi ESE 10.4 mph - 0.01 in Rain Light Rain
7:53 AM 37.0 °F 28.5 °F 36.0 °F 96% 28.93 in 6.0 mi ESE 13.8 mph 19.6 mph 0.04 in Rain Light Rain
8:33 AM 39.2 °F 34.2 °F 37.4 °F 93% 28.95 in 10.0 mi Variable 6.9 mph - 0.01 in   Overcast
8:53 AM 41.0 °F 35.2 °F 37.0 °F 86% 28.97 in 10.0 mi South 9.2 mph 17.3 mph 0.01 in   Overcast
9:04 AM 41.0 °F 35.8 °F 37.4 °F 87% 28.97 in 10.0 mi SSE 8.1 mph 18.4 mph N/A   Overcast
9:53 AM 42.1 °F 35.7 °F 36.0 °F 79% 29.00 in 10.0 mi South 11.5 mph 19.6 mph N/A   Overcast
10:41 AM 41.0 °F 32.8 °F 35.6 °F 81% 29.02 in 10.0 mi South 16.1 mph 28.8 mph 0.00 in Rain Light Rain
10:53 AM 41.0 °F 34.3 °F 37.0 °F 86% 29.03 in 10.0 mi South 11.5 mph 19.6 mph 0.00 in Rain Light Rain
11:13 AM 42.8 °F 35.4 °F 35.6 °F 76% 29.04 in 10.0 mi South 15.0 mph 24.2 mph 0.00 in   Mostly Cloudy
11:23 AM 42.8 °F 36.6 °F 35.6 °F 76% 29.05 in 10.0 mi South 11.5 mph 20.7 mph 0.00 in   Mostly Cloudy
11:53 AM 41.0 °F 34.3 °F 35.1 °F 79% 29.07 in 10.0 mi SSW 11.5 mph 29.9 mph 0.00 in Rain Light Rain
12:15 PM 42.8 °F 36.6 °F 35.6 °F 76% 29.07 in 10.0 mi SSW 11.5 mph 23.0 mph 0.00 in   Overcast
12:53 PM 42.1 °F 35.2 °F 35.1 °F 76% 29.09 in 10.0 mi South 12.7 mph 23.0 mph 0.00 in   Mostly Cloudy
1:53 PM 37.9 °F 32.7 °F 33.1 °F 83% 29.10 in 5.0 mi SSW 6.9 mph 25.3 mph 0.02 in Rain Rain
2:06 PM 39.2 °F 33.0 °F 35.6 °F 87% 29.09 in 10.0 mi South 9.2 mph - 0.00 in   Overcast
2:53 PM 41.0 °F 33.9 °F 34.0 °F 76% 29.11 in 10.0 mi SSE 12.7 mph 20.7 mph 0.00 in   Mostly Cloudy
3:42 PM 35.6 °F 27.5 °F 33.8 °F 93% 29.12 in 10.0 mi South 11.5 mph 24.2 mph 0.03 in Rain Light Rain
3:51 PM 37.4 °F 30.8 °F 33.8 °F 87% 29.13 in 10.0 mi South 9.2 mph 20.7 mph 0.03 in   Overcast
3:53 PM 37.9 °F 32.7 °F 35.1 °F 89% 29.14 in 10.0 mi South 6.9 mph 20.7 mph 0.03 in   Overcast
4:11 PM 37.4 °F 30.8 °F 33.8 °F 87% 29.14 in 10.0 mi SSW 9.2 mph 17.3 mph N/A   Overcast
4:53 PM 37.9 °F 34.4 °F 33.1 °F 83% 29.16 in 10.0 mi South 4.6 mph - N/A   Overcast
5:53 PM 37.9 °F 33.5 °F 32.0 °F 79% 29.17 in 10.0 mi South 5.8 mph - 0.00 in   Mostly Cloudy
6:53 PM 37.0 °F 34.5 °F 33.1 °F 86% 29.18 in 10.0 mi South 3.5 mph - N/A   Overcast
7:51 PM 37.4 °F 32.1 °F 33.8 °F 87% 29.17 in 8.0 mi South 6.9 mph - 0.00 in Rain Light Rain
7:53 PM 37.0 °F 32.4 °F 33.1 °F 86% 29.18 in 8.0 mi South 5.8 mph - 0.00 in Rain Rain
8:31 PM 33.8 °F - 32.0 °F 93% 29.17 in 5.0 mi Calm Calm - 0.04 in Snow Light Snow
8:38 PM 33.8 °F - 32.0 °F 93% 29.18 in 9.0 mi Calm Calm - 0.04 in   Mostly Cloudy
8:53 PM 34.0 °F - 32.0 °F 92% 29.18 in 10.0 mi Calm Calm - 0.04 in   Mostly Cloudy
9:07 PM 35.6 °F - 33.8 °F 93% 29.18 in 10.0 mi Calm Calm - N/A   Overcast
9:40 PM 35.6 °F 31.7 °F 33.8 °F 93% 29.18 in 10.0 mi SSW 4.6 mph - N/A   Overcast
9:53 PM 36.0 °F - 34.0 °F 93% 29.19 in 10.0 mi Calm Calm - N/A   Overcast
10:32 PM 35.6 °F 28.6 °F 32.0 °F 87% 29.20 in 8.0 mi WSW 9.2 mph 23.0 mph 0.01 in Rain Light Rain
10:43 PM 33.8 °F 29.6 °F 32.0 °F 93% 29.20 in 5.0 mi WSW 4.6 mph 17.3 mph 0.02 in Snow Light Snow
10:53 PM 34.0 °F - 33.1 °F 96% 29.21 in 9.0 mi Calm Calm - 0.02 in   Overcast
11:00 PM 33.8 °F 30.8 °F 33.8 °F 100% 29.20 in 10.0 mi Variable 3.5 mph - N/A   Mostly Cloudy
11:53 PM 34.0 °F - 32.0 °F 92% 29.21 in 10.0 mi Calm Calm - N/A   Overcast